Weather History for KORB - January, 2013

Change the Weather History Date:

Monday, January 21, 2013

  Actual Average Record
Temperature  
Mean Temperature -18 °F -  
Max Temperature -13 °F 13 °F 30 °F (1997)
Min Temperature -23 °F -1 °F -31 °F (2000)
Degree Days  
Heating Degree Days 83    
Moisture  
Dew Point -26 °F    
Average Humidity 67    
Maximum Humidity 76    
Minimum Humidity 53    
Precipitation  
Precipitation 0.00 in - - ()
Sea Level Pressure  
Sea Level Pressure 30.09 in    
Wind  
Wind Speed 9 mph (WNW)    
Max Wind Speed 13 mph    
Max Gust Speed 20 mph    
Visibility 8 miles    
Events      
Averages and records for this station are not official NWS values.
T = Trace of Precipitation, MM = Missing Value Source: NWS Daily Summary

Daily Weather History Graph

Daily Weather History Graph

Search for Another Location

Airport or City:

Trip Planner

Search our weather history database for the weather conditions in past years. The results will help you decide how hot, cold, wet, or windy it might be!

Date:

Astronomy

Jan. 21, 2013 Rise Set
Actual Time 7:51 AM CST 4:54 PM CST
Civil Twilight 7:16 AM CST 5:29 PM CST
Nautical Twilight 6:38 AM CST 6:07 PM CST
Astronomical Twilight 6:01 AM CST 6:44 PM CST
Moon 12:33 PM CST (1/21) 3:20 AM CST (1/21)
Length of Visible Light 10h 12m
Length of Day
9h 03m
Waxing Gibbous, 75% of the Moon is Illuminated
Jan 21
Waxing Gibbous
Jan 26
Full
Feb 3
Last Quarter
Feb 10
New
Feb 17
First Quarter

Hourly Weather History & Observations

Time (CST) Temp. Windchill Dew Point Humidity Pressure Visibility Wind Dir Wind Speed Gust Speed Precip Events Conditions
12:13 AM -16.6 °F -38.9 °F -25.6 °F 64% 30.09 in 10.0 mi WNW 12.7 mph 19.6 mph N/A   Clear
12:33 AM -16.6 °F -36.8 °F -25.6 °F 64% 30.09 in 10.0 mi WNW 10.4 mph 18.4 mph N/A   Clear
12:53 AM -18.4 °F -37.9 °F -25.6 °F 70% 30.09 in 10.0 mi WNW 9.2 mph - N/A   Clear
1:13 AM -18.4 °F -39.1 °F -25.6 °F 70% 30.08 in 10.0 mi WNW 10.4 mph - N/A   Clear
1:33 AM -18.4 °F -37.9 °F -25.6 °F 70% 30.09 in 10.0 mi WNW 9.2 mph - N/A   Clear
1:53 AM -18.4 °F -39.1 °F -25.6 °F 70% 30.09 in 10.0 mi WNW 10.4 mph - N/A   Clear
2:13 AM -18.4 °F -36.6 °F -25.6 °F 70% 30.09 in 10.0 mi WNW 8.1 mph - N/A   Clear
2:33 AM -18.4 °F -37.9 °F -25.6 °F 70% 30.09 in 10.0 mi WNW 9.2 mph 17.3 mph N/A   Clear
3:13 AM -20.2 °F -37.3 °F -27.4 °F 69% 30.09 in 10.0 mi WNW 6.9 mph - N/A   Clear
3:33 AM -20.2 °F -38.8 °F -27.4 °F 69% 30.09 in 10.0 mi WNW 8.1 mph - N/A   Clear
3:54 AM -20.2 °F -38.8 °F -27.4 °F 69% 30.09 in 10.0 mi WNW 8.1 mph - N/A   Clear
4:13 AM -22.0 °F -41.0 °F -27.4 °F 76% 30.09 in 10.0 mi WNW 8.1 mph - N/A   Clear
4:33 AM -22.0 °F -43.6 °F -29.2 °F 69% 30.08 in 10.0 mi WNW 10.4 mph 17.3 mph N/A   Clear
4:53 AM -22.0 °F -43.6 °F -29.2 °F 69% 30.08 in 10.0 mi WNW 10.4 mph - N/A   Clear
5:13 AM -23.8 °F -43.2 °F -29.2 °F 76% 30.08 in 10.0 mi WNW 8.1 mph - N/A   Clear
5:55 AM -23.8 °F -43.2 °F -29.2 °F 76% 30.08 in 10.0 mi WNW 8.1 mph - N/A   Clear
6:13 AM -23.8 °F -41.6 °F -31.0 °F 69% 30.09 in 10.0 mi WNW 6.9 mph - N/A   Clear
6:33 AM -23.8 °F -39.8 °F -31.0 °F 69% 30.09 in 10.0 mi WNW 5.8 mph - N/A   Clear
6:53 AM -23.8 °F -43.2 °F -31.0 °F 69% 30.09 in 10.0 mi WNW 8.1 mph - N/A   Clear
7:14 AM -23.8 °F -41.6 °F -31.0 °F 69% 30.09 in 10.0 mi WNW 6.9 mph - N/A   Clear
7:33 AM -23.8 °F -43.2 °F -32.8 °F 63% 30.09 in 10.0 mi WNW 8.1 mph - N/A   Clear
7:54 AM -23.8 °F -39.8 °F -31.0 °F 69% 30.09 in 5.0 mi WNW 5.8 mph - N/A   Haze
8:13 AM -23.8 °F -41.6 °F -31.0 °F 69% 30.10 in 5.0 mi WNW 6.9 mph - N/A   Haze
8:33 AM -23.8 °F -39.8 °F -31.0 °F 69% 30.10 in 5.0 mi WNW 5.8 mph - N/A   Haze
8:53 AM -23.8 °F -37.7 °F -29.2 °F 76% 30.10 in 10.0 mi WNW 4.6 mph - N/A   Clear
9:13 AM -22.0 °F -42.3 °F -29.2 °F 69% 30.10 in 10.0 mi WNW 9.2 mph - N/A   Clear
9:33 AM -20.2 °F -41.3 °F -29.2 °F 63% 30.10 in 10.0 mi WNW 10.4 mph - N/A   Clear
9:53 AM -20.2 °F -40.1 °F -29.2 °F 63% 30.11 in 10.0 mi WNW 9.2 mph - N/A   Clear
10:13 AM -20.2 °F -40.1 °F -29.2 °F 63% 30.11 in 7.0 mi WNW 9.2 mph - N/A   Clear
10:33 AM -18.4 °F -36.6 °F -27.4 °F 63% 30.11 in 10.0 mi WNW 8.1 mph - N/A   Clear
10:54 AM -18.4 °F -37.9 °F -27.4 °F 63% 30.11 in 10.0 mi WNW 9.2 mph 16.1 mph N/A   Clear
11:13 AM -18.4 °F -37.9 °F -27.4 °F 63% 30.11 in 7.0 mi WNW 9.2 mph - N/A   Clear
11:33 AM -16.6 °F -36.8 °F -27.4 °F 58% 30.10 in 7.0 mi WNW 10.4 mph 17.3 mph N/A   Clear
11:53 AM -16.6 °F -35.7 °F -25.6 °F 64% 30.09 in 4.0 mi WNW 9.2 mph - N/A   Haze
12:13 PM -14.8 °F -36.6 °F -25.6 °F 58% 30.08 in 4.0 mi WNW 12.7 mph 16.1 mph N/A   Haze
12:33 PM -14.8 °F -34.6 °F -25.6 °F 58% 30.08 in 2.5 mi WNW 10.4 mph 16.1 mph N/A   Haze
12:54 PM -14.8 °F -36.6 °F -25.6 °F 58% 30.07 in 3.0 mi WNW 12.7 mph - N/A   Haze
1:13 PM -14.8 °F -34.6 °F -23.8 °F 64% 30.07 in 4.0 mi WNW 10.4 mph - N/A   Haze
1:33 PM -14.8 °F -35.6 °F -25.6 °F 58% 30.07 in 10.0 mi WNW 11.5 mph - N/A   Clear
1:53 PM -13.0 °F -33.4 °F -25.6 °F 53% 30.07 in 10.0 mi WNW 11.5 mph 17.3 mph N/A   Clear
2:13 PM -13.0 °F -32.4 °F -23.8 °F 59% 30.06 in 10.0 mi WNW 10.4 mph - N/A   Clear
2:33 PM -13.0 °F -31.3 °F -23.8 °F 59% 30.06 in 7.0 mi WNW 9.2 mph 16.1 mph N/A   Clear
2:54 PM -13.0 °F -33.4 °F -22.0 °F 64% 30.06 in 3.0 mi WNW 11.5 mph - N/A   Haze
3:13 PM -13.0 °F -32.4 °F -23.8 °F 59% 30.07 in 7.0 mi WNW 10.4 mph 19.6 mph N/A   Clear
3:33 PM -13.0 °F -32.4 °F -23.8 °F 59% 30.07 in 10.0 mi West 10.4 mph - N/A   Clear
3:53 PM -13.0 °F -30.0 °F -20.2 °F 70% 30.07 in 2.5 mi WNW 8.1 mph - N/A   Haze
4:14 PM -13.0 °F -30.0 °F -20.2 °F 70% 30.07 in 2.5 mi WNW 8.1 mph - N/A   Haze
4:33 PM -13.0 °F -30.0 °F -23.8 °F 59% 30.07 in 10.0 mi West 8.1 mph 16.1 mph N/A   Clear
4:53 PM -13.0 °F -28.6 °F -23.8 °F 59% 30.07 in 10.0 mi WNW 6.9 mph - N/A   Clear
5:13 PM -14.8 °F -27.2 °F -22.0 °F 70% 30.08 in 10.0 mi WNW 4.6 mph - N/A   Clear
5:33 PM -14.8 °F -24.8 °F -22.0 °F 70% 30.08 in 7.0 mi West 3.5 mph - N/A   Clear
5:53 PM -14.8 °F -24.8 °F -22.0 °F 70% 30.08 in 10.0 mi WNW 3.5 mph - N/A   Clear
6:13 PM -16.6 °F - -23.8 °F 70% 30.09 in 5.0 mi Calm Calm - N/A   Haze
6:33 PM -16.6 °F - -23.8 °F 70% 30.09 in 5.0 mi Calm Calm - N/A   Haze
6:53 PM -18.4 °F - -23.8 °F 76% 30.09 in 10.0 mi Calm Calm - N/A   Clear
7:13 PM -16.6 °F - -22.0 °F 76% 30.09 in 3.0 mi Calm Calm - N/A   Haze
7:33 PM -16.6 °F -26.8 °F -22.0 °F 76% 30.09 in 7.0 mi West 3.5 mph - N/A   Clear
7:53 PM -16.6 °F - -23.8 °F 70% 30.09 in 7.0 mi Calm Calm - N/A   Clear
8:13 PM -16.6 °F -31.3 °F -23.8 °F 70% 30.09 in 5.0 mi West 5.8 mph - N/A   Haze
8:33 PM -16.6 °F -29.3 °F -23.8 °F 70% 30.09 in 10.0 mi West 4.6 mph - N/A   Clear
8:53 PM -18.4 °F -31.4 °F -25.6 °F 70% 30.09 in 10.0 mi West 4.6 mph - N/A   Clear
9:13 PM -18.4 °F -35.1 °F -23.8 °F 76% 30.10 in 10.0 mi West 6.9 mph - N/A   Clear
9:33 PM -16.6 °F -37.9 °F -23.8 °F 70% 30.10 in 10.0 mi WNW 11.5 mph - N/A   Clear
9:53 PM -18.4 °F -37.9 °F -23.8 °F 76% 30.11 in 10.0 mi WNW 9.2 mph - N/A   Clear
10:13 PM -18.4 °F -36.6 °F -25.6 °F 70% 30.11 in 5.0 mi WNW 8.1 mph - N/A   Haze
10:33 PM -18.4 °F -36.6 °F -25.6 °F 70% 30.11 in 10.0 mi WNW 8.1 mph - N/A   Clear
10:53 PM -18.4 °F -35.1 °F -25.6 °F 70% 30.12 in 10.0 mi WNW 6.9 mph - N/A   Unknown
11:13 PM -20.2 °F -33.5 °F -27.4 °F 69% 30.12 in 10.0 mi WNW 4.6 mph - N/A   Unknown
11:33 PM -20.2 °F -30.9 °F -27.4 °F 69% 30.12 in 10.0 mi NW 3.5 mph - N/A   Unknown
11:53 PM -22.0 °F -33.0 °F -27.4 °F 76% 30.13 in 10.0 mi WNW 3.5 mph - N/A   Unknown